Regional Weather Roundup
Issued by NWS

Home | Current Version | Previous Version | Text Only | Print | Product List | Glossary Off
Versions: 1 2 3 4 5 6 7 8 9 10 11 12 13 14 15 16 17 18 19 20 21 22 23 24 25 26 27 28 29 30 31 32 33 34 35 36 37 38 39 40 41 42 43 44 45 46 47 48 49 50

000
ASUS43 KFSD 221502
RWRSD

WEATHER ROUNDUP FOR SOUTH DAKOTA
NATIONAL WEATHER SERVICE SIOUX FALLS SD
1000 AM CDT THU JUN 22 2017

NOTE: "FAIR" INDICATES FEW OR NO CLOUDS BELOW 12,000 FEET WITH NO
SIGNIFICANT WEATHER AND/OR OBSTRUCTIONS TO VISIBILITY.


SDZ001>005-009-010-012>017-221600-
NORTHWEST AND NORTH CENTRAL SOUTH DAKOTA

CITY           SKY/WX    TMP DP  RH WIND       PRES   REMARKS
BUFFALO          N/A     64  47  53 S5        29.88R
FAITH            N/A     62  46  55 N18       29.90R
MOBRIDGE       SUNNY     70  46  42 N18G26    29.81R
$$

SDZ012>016-024>037-041>051-057-063-072>074-221600-
SOUTHWEST AND SOUTH CENTRAL SOUTH DAKOTA

CITY           SKY/WX    TMP DP  RH WIND       PRES   REMARKS
RAPID CTY ARPT CLOUDY    65  51  60 N17G25    29.93R
PIERRE         CLOUDY    60  53  77 N16       29.81R
CUSTER         SUNNY     64  45  49 NE13G24   29.99R
ELLSWORTH AFB  PTSUNNY   63  49  61 N18G24    29.93R
PHILIP         PTSUNNY   65  56  72 NE13      29.86R
PINE RIDGE     PTSUNNY   66  53  63 NE13      29.89R
SPEARFISH      PTSUNNY   54  45  71 NW10      30.02R
WINNER         CLOUDY    68  58  70 N10       29.80R
$$

SDZ004>011-016>023-039-040-221600-
NORTHEAST SOUTH DAKOTA

CITY           SKY/WX    TMP DP  RH WIND       PRES   REMARKS
ABERDEEN       CLOUDY    65  52  62 N14       29.79R
WATERTOWN      RAIN      59  56  89 N14       29.74S
BROOKINGS      CLOUDY    64  61  90 NE8       29.72F
SISSETON         N/A     62  57  83 NW8       29.73R
$$

SDZ017-020-022-023-036>040-048>070-221600-
SOUTHEAST SOUTH DAKOTA

CITY           SKY/WX    TMP DP  RH WIND       PRES   REMARKS
SIOUX FALLS    CLOUDY    71  63  75 NE14      29.71R
HURON          CLOUDY    59  58  96 N9        29.72F
CHAMBERLAIN    CLOUDY    65  61  86 W3        29.78R
MITCHELL       CLOUDY    69  59  70 NE8       29.73R
YANKTON        CLOUDY    75  60  59 NE21G30   29.68
$$

ABBREVIATIONS USED IN REMARKS
   TC - TEMPERATURE IN CELSIUS
  WCI - WIND CHILL INDEX
   HX - HEAT INDEX
  VSB - VISIBILITY





USA.gov is the U.S. government's official web portal to all federal, state and local government web resources and services.